THY5LW LTFM-LYTV

Flight info

Callsign THY5LW
Flight time 1h 25m
Altitude 34000
Route BARPE1H/18 BARPE UM603 IDILO DCT SUTIS DCT DISOR DCT ENFAR DCT RETRA Y400 POD
Aircraft A321/M-SDE3FGHIRWY/LB1

Departure

Time 2026-05-09 14:08
Airport İstanbul Airport (LTFM)

Arrival

Time 2026-05-09 15:34
Airport Tivat Airport (LYTV)
Time Latitude Longitude Altitude Speed Heading
2026-05-09 13:33 41.26497 28.74988 334 ft 0 kts 287°
2026-05-09 13:56 41.26496 28.74992 334 ft 3 kts 287°
2026-05-09 13:57 41.26489 28.75024 332 ft 2 kts 287°
2026-05-09 13:57 41.26481 28.75051 330 ft 4 kts 311°
2026-05-09 13:57 41.26466 28.75067 330 ft 4 kts 343°
2026-05-09 13:57 41.26442 28.75068 330 ft 3 kts 17°
2026-05-09 13:58 41.26429 28.75063 331 ft 0 kts 17°
2026-05-09 14:00 41.26466 28.75078 334 ft 8 kts 17°
2026-05-09 14:00 41.26534 28.75106 332 ft 13 kts 17°
2026-05-09 14:01 41.26621 28.75163 330 ft 15 kts 63°
2026-05-09 14:01 41.26628 28.75317 330 ft 17 kts 89°
2026-05-09 14:01 41.26722 28.75380 331 ft 19 kts 358°
2026-05-09 14:01 41.26872 28.75379 333 ft 24 kts 359°
2026-05-09 14:02 41.27049 28.75377 333 ft 27 kts 360°
2026-05-09 14:02 41.27246 28.75372 331 ft 28 kts 358°
2026-05-09 14:02 41.27442 28.75363 330 ft 28 kts 358°
2026-05-09 14:02 41.27640 28.75359 330 ft 29 kts 359°
2026-05-09 14:03 41.27839 28.75354 330 ft 28 kts 359°
2026-05-09 14:03 41.28037 28.75350 334 ft 29 kts 359°
2026-05-09 14:03 41.28236 28.75345 332 ft 29 kts 359°
2026-05-09 14:03 41.28432 28.75340 331 ft 28 kts 359°
2026-05-09 14:04 41.28624 28.75335 330 ft 26 kts 359°
2026-05-09 14:04 41.28765 28.75332 332 ft 12 kts 359°
2026-05-09 14:04 41.28816 28.75394 332 ft 12 kts 85°
2026-05-09 14:04 41.28817 28.75460 332 ft 0 kts 89°
2026-05-09 14:06 41.28817 28.75462 332 ft 0 kts 89°
2026-05-09 14:07 41.28817 28.75480 334 ft 4 kts 89°
2026-05-09 14:07 41.28818 28.75545 334 ft 10 kts 89°
2026-05-09 14:07 41.28780 28.75617 332 ft 12 kts 171°
2026-05-09 14:07 41.28684 28.75619 331 ft 25 kts 180°
2026-05-09 14:08 41.28245 28.75627 332 ft 99 kts 179°
2026-05-09 14:08 41.27348 28.75641 337 ft 155 kts 179°
2026-05-09 14:08 41.26255 28.75652 944 ft 156 kts 182°
2026-05-09 14:08 41.25192 28.75944 1588 ft 166 kts 151°
2026-05-09 14:09 41.24254 28.77056 1877 ft 194 kts 139°
2026-05-09 14:09 41.23179 28.78275 2151 ft 214 kts 148°
2026-05-09 14:09 41.21872 28.79432 2412 ft 238 kts 151°
2026-05-09 14:09 41.20397 28.80653 2843 ft 259 kts 152°
2026-05-09 14:10 41.17065 28.82301 4377 ft 257 kts 186°
2026-05-09 14:10 41.15281 28.82176 5250 ft 258 kts 187°
2026-05-09 14:10 41.13477 28.82047 6043 ft 261 kts 187°
2026-05-09 14:11 41.11651 28.81914 6817 ft 264 kts 189°
2026-05-09 14:11 41.09900 28.81265 7543 ft 262 kts 212°
2026-05-09 14:11 41.08519 28.79720 8285 ft 263 kts 234°
2026-05-09 14:11 41.07755 28.77524 9012 ft 267 kts 258°
2026-05-09 14:12 41.07551 28.75065 9764 ft 270 kts 264°
2026-05-09 14:12 41.07391 28.72548 10297 ft 283 kts 264°
2026-05-09 14:12 41.07218 28.69841 10497 ft 306 kts 264°
2026-05-09 14:12 41.07028 28.66938 10761 ft 324 kts 264°
2026-05-09 14:13 41.06829 28.63927 11353 ft 330 kts 264°
2026-05-09 14:14 41.05333 28.41924 15959 ft 354 kts 264°
2026-05-09 14:15 41.05106 28.38658 16597 ft 358 kts 264°
2026-05-09 14:15 41.04875 28.35360 17221 ft 361 kts 264°
2026-05-09 14:15 41.04641 28.32030 17837 ft 365 kts 264°
2026-05-09 14:15 41.04404 28.28660 18427 ft 369 kts 264°
2026-05-09 14:16 41.04163 28.25264 18961 ft 372 kts 264°
2026-05-09 14:16 41.03919 28.21836 19501 ft 376 kts 264°
2026-05-09 14:16 41.03670 28.18376 20050 ft 379 kts 264°
2026-05-09 14:16 41.03421 28.14884 20600 ft 382 kts 264°
2026-05-09 14:17 41.03172 28.11364 21144 ft 386 kts 264°
2026-05-09 14:17 41.02917 28.07811 21667 ft 389 kts 264°
2026-05-09 14:17 41.02657 28.04228 22173 ft 393 kts 264°
2026-05-09 14:17 41.02391 28.00611 22663 ft 397 kts 264°
2026-05-09 14:18 41.02122 27.96959 23158 ft 400 kts 264°
2026-05-09 14:18 41.01851 27.93275 23624 ft 404 kts 264°
2026-05-09 14:18 41.01579 27.89565 24036 ft 407 kts 264°
2026-05-09 14:18 41.01304 27.85827 24442 ft 409 kts 264°
2026-05-09 14:19 41.01026 27.82068 24853 ft 412 kts 264°
2026-05-09 14:19 41.00742 27.78288 25261 ft 414 kts 264°
2026-05-09 14:19 41.00454 27.74487 25671 ft 416 kts 264°
2026-05-09 14:19 41.00165 27.70661 26057 ft 419 kts 264°
2026-05-09 14:20 40.99875 27.66813 26454 ft 421 kts 265°
2026-05-09 14:20 40.99583 27.62940 26836 ft 424 kts 265°
2026-05-09 14:20 40.99288 27.59051 27224 ft 426 kts 265°
2026-05-09 14:21 40.98685 27.51202 27947 ft 432 kts 264°
2026-05-09 14:21 40.98377 27.47237 28282 ft 435 kts 265°
2026-05-09 14:21 40.98065 27.43240 28619 ft 437 kts 265°
2026-05-09 14:21 40.97752 27.39225 28967 ft 440 kts 265°
2026-05-09 14:22 40.97436 27.35185 29315 ft 443 kts 265°
2026-05-09 14:22 40.97118 27.31123 29675 ft 445 kts 265°
2026-05-09 14:22 40.96795 27.27042 30052 ft 448 kts 265°
2026-05-09 14:22 40.96467 27.22938 30398 ft 448 kts 264°
2026-05-09 14:23 40.96137 27.18845 30831 ft 447 kts 264°
2026-05-09 14:23 40.95807 27.14762 31289 ft 445 kts 264°
2026-05-09 14:23 40.95480 27.10705 31751 ft 443 kts 264°
2026-05-09 14:23 40.95154 27.06664 32191 ft 441 kts 264°
2026-05-09 14:24 40.94827 27.02632 32625 ft 440 kts 264°
2026-05-09 14:24 40.94502 26.98619 33049 ft 439 kts 264°
2026-05-09 14:24 40.94176 26.94614 33456 ft 438 kts 264°
2026-05-09 14:24 40.93847 26.90613 33851 ft 437 kts 264°
2026-05-09 14:25 40.93515 26.86615 33999 ft 436 kts 264°
2026-05-09 14:25 40.93182 26.82658 34016 ft 431 kts 264°
2026-05-09 14:25 40.92520 26.74811 34016 ft 429 kts 264°
2026-05-09 14:26 40.91861 26.66987 34016 ft 428 kts 264°
2026-05-09 14:26 40.91198 26.59157 34016 ft 428 kts 264°
2026-05-09 14:27 40.90528 26.51343 34015 ft 427 kts 264°
2026-05-09 14:27 40.89855 26.43547 34017 ft 427 kts 264°
2026-05-09 14:28 40.89182 26.35742 34016 ft 427 kts 264°
2026-05-09 14:28 40.88493 26.27930 34014 ft 428 kts 264°
2026-05-09 14:29 40.87785 26.20165 34007 ft 429 kts 264°
2026-05-09 14:29 40.87031 26.12351 34010 ft 429 kts 264°
2026-05-09 14:30 40.86261 26.04543 34010 ft 428 kts 264°
2026-05-09 14:30 40.85490 25.96742 34011 ft 428 kts 264°
2026-05-09 14:31 40.84645 25.88949 34022 ft 429 kts 263°
2026-05-09 14:31 40.83675 25.81185 34020 ft 428 kts 262°
2026-05-09 14:32 40.82696 25.73427 34012 ft 428 kts 262°
2026-05-09 14:32 40.81737 25.65671 34023 ft 428 kts 262°
2026-05-09 14:33 40.80782 25.57920 34026 ft 428 kts 263°
2026-05-09 14:33 40.79825 25.50179 34029 ft 427 kts 262°
2026-05-09 14:34 40.78861 25.42444 34028 ft 427 kts 263°
2026-05-09 14:34 40.77900 25.34714 34023 ft 427 kts 262°
2026-05-09 14:35 40.76924 25.26990 34029 ft 427 kts 262°
2026-05-09 14:35 40.75941 25.19279 34014 ft 426 kts 263°
2026-05-09 14:36 40.74954 25.11579 34029 ft 426 kts 262°
2026-05-09 14:36 40.73965 25.03886 34024 ft 426 kts 262°
2026-05-09 14:37 40.72972 24.96199 34015 ft 425 kts 263°
2026-05-09 14:37 40.71978 24.88523 34025 ft 424 kts 263°
2026-05-09 14:38 40.70982 24.80858 34026 ft 424 kts 263°
2026-05-09 14:38 40.70992 24.73177 34023 ft 418 kts 282°
2026-05-09 14:39 40.72746 24.65903 34025 ft 417 kts 291°
2026-05-09 14:39 40.74785 24.58742 34020 ft 417 kts 291°
2026-05-09 14:40 40.76809 24.51567 34016 ft 417 kts 291°
2026-05-09 14:40 40.78828 24.44387 34014 ft 417 kts 291°
2026-05-09 14:41 40.80847 24.37205 34007 ft 417 kts 291°
2026-05-09 14:41 40.82525 24.31238 34013 ft 417 kts 291°
2026-05-09 14:42 40.84530 24.24067 34019 ft 416 kts 291°
2026-05-09 14:42 40.86528 24.16890 34018 ft 416 kts 291°
2026-05-09 14:43 40.88522 24.09719 34016 ft 416 kts 291°
2026-05-09 14:43 40.90513 24.02540 34020 ft 416 kts 290°
2026-05-09 14:44 40.92500 23.95359 34023 ft 416 kts 290°
2026-05-09 14:44 40.94484 23.88184 34024 ft 415 kts 290°
2026-05-09 14:45 40.96458 23.81002 34027 ft 415 kts 290°
2026-05-09 14:45 40.98422 23.73816 34021 ft 415 kts 290°
2026-05-09 14:46 41.00390 23.66589 34031 ft 414 kts 290°
2026-05-09 14:46 41.02327 23.59483 34033 ft 412 kts 290°
2026-05-09 14:47 41.04278 23.52347 34037 ft 412 kts 290°
2026-05-09 14:47 41.06215 23.45208 34037 ft 412 kts 290°
2026-05-09 14:48 41.08141 23.38070 34033 ft 411 kts 290°
2026-05-09 14:48 41.10066 23.30947 34043 ft 410 kts 290°
2026-05-09 14:49 41.11980 23.23827 34046 ft 409 kts 290°
2026-05-09 14:49 41.13887 23.16715 34049 ft 409 kts 290°
2026-05-09 14:50 41.15782 23.09606 34043 ft 408 kts 290°
2026-05-09 14:50 41.17668 23.02516 34051 ft 406 kts 290°
2026-05-09 14:51 41.19547 22.95446 34052 ft 406 kts 290°
2026-05-09 14:51 41.21415 22.88385 34051 ft 405 kts 290°
2026-05-09 14:52 41.23275 22.81334 34049 ft 404 kts 290°
2026-05-09 14:52 41.25125 22.74295 34052 ft 402 kts 290°
2026-05-09 14:53 41.26874 22.67265 34059 ft 399 kts 289°
2026-05-09 14:53 41.28557 22.60271 34056 ft 396 kts 289°
2026-05-09 14:54 41.30238 22.53308 34062 ft 395 kts 289°
2026-05-09 14:54 41.31923 22.46366 34062 ft 394 kts 289°
2026-05-09 14:55 41.33605 22.39450 34078 ft 391 kts 290°
2026-05-09 14:55 41.35266 22.32587 34083 ft 388 kts 290°
2026-05-09 14:56 41.36910 22.25768 34071 ft 385 kts 290°
2026-05-09 14:56 41.38538 22.18992 34069 ft 384 kts 290°
2026-05-09 14:57 41.40158 22.12230 34055 ft 383 kts 291°
2026-05-09 14:57 41.41770 22.05501 34094 ft 380 kts 291°
2026-05-09 14:58 41.43350 21.98864 34091 ft 377 kts 291°
2026-05-09 14:58 41.44932 21.92225 34095 ft 375 kts 291°
2026-05-09 14:59 41.46502 21.85614 34085 ft 373 kts 291°
2026-05-09 14:59 41.48058 21.79007 34088 ft 373 kts 291°
2026-05-09 15:00 41.49608 21.72412 34088 ft 372 kts 290°
2026-05-09 15:00 41.51158 21.65826 34091 ft 371 kts 291°
2026-05-09 15:01 41.53473 21.55982 34086 ft 371 kts 290°
2026-05-09 15:02 41.55006 21.49414 34085 ft 370 kts 290°
2026-05-09 15:02 41.56529 21.42841 34085 ft 371 kts 290°
2026-05-09 15:03 41.58049 21.36268 34081 ft 372 kts 290°
2026-05-09 15:03 41.59580 21.29662 34089 ft 372 kts 290°
2026-05-09 15:04 41.61093 21.23069 34091 ft 371 kts 290°
2026-05-09 15:06 41.67113 20.96752 34083 ft 370 kts 289°
2026-05-09 15:06 41.68602 20.90208 34084 ft 370 kts 289°
2026-05-09 15:07 41.70094 20.83613 34116 ft 370 kts 290°
2026-05-09 15:07 41.71580 20.77023 34096 ft 369 kts 289°
2026-05-09 15:08 41.73061 20.70452 34098 ft 368 kts 289°
2026-05-09 15:08 41.75274 20.60588 34102 ft 369 kts 289°
2026-05-09 15:10 41.83765 20.35754 34101 ft 368 kts 298°
2026-05-09 15:11 41.86128 20.29662 34104 ft 368 kts 297°
2026-05-09 15:11 41.88485 20.23556 33753 ft 368 kts 298°
2026-05-09 15:12 41.89656 20.20521 33379 ft 364 kts 298°
2026-05-09 15:12 41.90816 20.17523 32947 ft 360 kts 298°
2026-05-09 15:12 41.91962 20.14560 32531 ft 356 kts 298°
2026-05-09 15:12 41.93092 20.11627 32103 ft 349 kts 297°
2026-05-09 15:13 41.94193 20.08762 31706 ft 343 kts 297°
2026-05-09 15:13 41.95287 20.05921 31295 ft 342 kts 298°
2026-05-09 15:13 41.96376 20.03093 30886 ft 340 kts 298°
2026-05-09 15:13 41.97457 20.00270 30483 ft 339 kts 298°
2026-05-09 15:14 41.98533 19.97455 30063 ft 338 kts 298°
2026-05-09 15:14 41.99604 19.94650 29633 ft 337 kts 298°
2026-05-09 15:14 42.00671 19.91856 29234 ft 336 kts 298°
2026-05-09 15:14 42.01735 19.89068 28831 ft 335 kts 298°
2026-05-09 15:15 42.02797 19.86293 28429 ft 333 kts 298°
2026-05-09 15:15 42.03498 19.84462 28162 ft 332 kts 298°
2026-05-09 15:15 42.04906 19.80777 27634 ft 330 kts 298°
2026-05-09 15:15 42.05951 19.78039 27237 ft 329 kts 298°
2026-05-09 15:16 42.06992 19.75310 26853 ft 327 kts 298°
2026-05-09 15:16 42.08028 19.72588 26467 ft 326 kts 298°
2026-05-09 15:16 42.09056 19.69880 26099 ft 324 kts 299°
2026-05-09 15:16 42.10081 19.67178 25726 ft 324 kts 298°
2026-05-09 15:17 42.11103 19.64481 25357 ft 322 kts 298°
2026-05-09 15:17 42.12119 19.61795 25001 ft 321 kts 298°
2026-05-09 15:17 42.13129 19.59123 24656 ft 321 kts 298°
2026-05-09 15:17 42.14143 19.56430 24293 ft 321 kts 298°
2026-05-09 15:18 42.15152 19.53749 23939 ft 321 kts 298°
2026-05-09 15:18 42.16164 19.51071 23568 ft 320 kts 298°
2026-05-09 15:18 42.17174 19.48406 23186 ft 319 kts 298°
2026-05-09 15:18 42.18183 19.45735 22822 ft 319 kts 299°
2026-05-09 15:19 42.19183 19.43075 22477 ft 317 kts 298°
2026-05-09 15:19 42.20191 19.40435 22121 ft 316 kts 301°
2026-05-09 15:19 42.21455 19.38034 21769 ft 315 kts 311°
2026-05-09 15:19 42.23050 19.36005 21347 ft 315 kts 321°
2026-05-09 15:20 42.24769 19.34202 20642 ft 321 kts 313°
2026-05-09 15:20 42.26510 19.28548 18975 ft 344 kts 281°
2026-05-09 15:20 42.26569 19.25256 18094 ft 348 kts 262°
2026-05-09 15:21 42.25775 19.22210 17168 ft 345 kts 242°
2026-05-09 15:21 42.24277 19.19757 16286 ft 346 kts 224°
2026-05-09 15:21 42.22414 19.17703 15316 ft 344 kts 222°
2026-05-09 15:21 42.20537 19.15671 14367 ft 339 kts 221°
2026-05-09 15:22 42.18730 19.13720 13400 ft 335 kts 221°
2026-05-09 15:22 42.16918 19.11764 12385 ft 332 kts 221°
2026-05-09 15:22 42.14947 19.10180 11402 ft 332 kts 200°
2026-05-09 15:22 42.12695 19.09775 10762 ft 326 kts 174°
2026-05-09 15:23 42.10524 19.10631 10328 ft 323 kts 151°
2026-05-09 15:23 42.08660 19.12175 9868 ft 306 kts 146°
2026-05-09 15:23 42.06772 19.13368 9403 ft 298 kts 167°
2026-05-09 15:23 42.04721 19.13571 9252 ft 297 kts 187°
2026-05-09 15:24 42.02754 19.12811 9128 ft 294 kts 208°
2026-05-09 15:24 42.01136 19.11176 9009 ft 291 kts 230°
2026-05-09 15:24 42.00068 19.08908 8869 ft 286 kts 251°
2026-05-09 15:24 41.99654 19.06329 8746 ft 282 kts 271°
2026-05-09 15:25 41.99813 19.03714 8620 ft 281 kts 279°
2026-05-09 15:25 42.00053 19.01109 8491 ft 281 kts 279°
2026-05-09 15:25 42.00300 18.98510 8362 ft 280 kts 282°
2026-05-09 15:26 42.02127 18.94049 8105 ft 275 kts 319°
2026-05-09 15:26 42.03710 18.92634 7826 ft 273 kts 337°
2026-05-09 15:26 42.05477 18.91720 7459 ft 271 kts 340°
2026-05-09 15:26 42.07202 18.90846 7090 ft 257 kts 340°
2026-05-09 15:27 42.08830 18.90014 6737 ft 244 kts 340°
2026-05-09 15:27 42.10388 18.89214 6416 ft 238 kts 340°
2026-05-09 15:27 42.11918 18.88428 6069 ft 235 kts 340°
2026-05-09 15:27 42.13437 18.87647 5733 ft 232 kts 340°
2026-05-09 15:28 42.14432 18.87135 5524 ft 231 kts 340°
2026-05-09 15:28 42.15928 18.86366 5205 ft 230 kts 340°
2026-05-09 15:28 42.17414 18.85602 5016 ft 229 kts 339°
2026-05-09 15:28 42.18907 18.84834 4860 ft 232 kts 339°
2026-05-09 15:29 42.20414 18.84058 4314 ft 229 kts 339°
2026-05-09 15:29 42.21888 18.83286 3960 ft 226 kts 337°
2026-05-09 15:29 42.23296 18.82495 3639 ft 214 kts 338°
2026-05-09 15:29 42.24640 18.81786 3379 ft 200 kts 339°
2026-05-09 15:30 42.25899 18.81141 3080 ft 188 kts 339°
2026-05-09 15:30 42.27097 18.80529 2827 ft 181 kts 339°
2026-05-09 15:30 42.28232 18.79950 2591 ft 168 kts 339°
2026-05-09 15:30 42.29273 18.79419 2370 ft 154 kts 339°
2026-05-09 15:31 42.30258 18.78916 2147 ft 149 kts 339°
2026-05-09 15:31 42.31225 18.78422 1942 ft 148 kts 339°
2026-05-09 15:31 42.32184 18.77932 1736 ft 147 kts 339°
2026-05-09 15:31 42.33138 18.77444 1537 ft 146 kts 339°
2026-05-09 15:32 42.34089 18.76958 1339 ft 146 kts 338°
2026-05-09 15:32 42.35038 18.76473 1140 ft 146 kts 339°
2026-05-09 15:32 42.35979 18.75991 940 ft 145 kts 339°
2026-05-09 15:32 42.36927 18.75508 719 ft 144 kts 339°
2026-05-09 15:33 42.37858 18.75011 484 ft 144 kts 334°
2026-05-09 15:33 42.38722 18.74345 288 ft 143 kts 323°
2026-05-09 15:33 42.39486 18.73482 63 ft 143 kts 317°
2026-05-09 15:33 42.40196 18.72640 5 ft 118 kts 319°
2026-05-09 15:34 42.40689 18.72065 1 ft 69 kts 319°
2026-05-09 15:34 42.40909 18.71807 6 ft 12 kts 319°
2026-05-09 15:34 42.40971 18.71820 7 ft 10 kts 44°
2026-05-09 15:34 42.41010 18.71854 8 ft 6 kts 358°
2026-05-09 15:35 42.41046 18.71820 7 ft 8 kts 319°
2026-05-09 15:35 42.41096 18.71762 6 ft 11 kts 319°
2026-05-09 15:35 42.41135 18.71715 7 ft 0 kts 319°
2026-05-09 15:35 42.41140 18.71710 7 ft 1 kts 319°
2026-05-09 15:36 42.41150 18.71706 7 ft 2 kts 356°
2026-05-09 15:36 42.41164 18.71718 8 ft 3 kts 42°
2026-05-09 15:36 42.41169 18.71738 8 ft 1 kts 99°
2026-05-09 15:36 42.41155 18.71746 8 ft 2 kts 164°